TimeAST,TemperatureF,Dew PointF,Humidity,Sea Level PressureIn,VisibilityMPH,Wind Direction,Wind SpeedMPH,Gust SpeedMPH,PrecipitationIn,Events,Conditions,WindDirDegrees,DateUTC
12:56 AM,82.0,77.0,85,29.98,10.0,East,6.9,-,0.01,Rain,Light Rain,100,2013-09-01 04:56:00
1:56 AM,82.0,77.0,85,29.96,10.0,Calm,Calm,-,0.00,,Partly Cloudy,0,2013-09-01 05:56:00
2:56 AM,82.0,75.9,82,29.96,10.0,Calm,Calm,-,N/A,,Scattered Clouds,0,2013-09-01 06:56:00
3:56 AM,81.0,75.9,85,29.95,10.0,Calm,Calm,-,N/A,,Partly Cloudy,0,2013-09-01 07:56:00
4:56 AM,82.0,75.9,82,29.95,10.0,Calm,Calm,-,N/A,,Scattered Clouds,0,2013-09-01 08:56:00
5:56 AM,81.0,75.9,85,29.95,10.0,Calm,Calm,-,N/A,,Scattered Clouds,0,2013-09-01 09:56:00
6:56 AM,81.0,75.9,85,29.96,10.0,Calm,Calm,-,N/A,,Scattered Clouds,0,2013-09-01 10:56:00
7:56 AM,82.9,77.0,82,29.97,10.0,Calm,Calm,-,0.00,Rain,Light Rain,0,2013-09-01 11:56:00
8:56 AM,86.0,77.0,74,29.97,10.0,ENE,10.4,-,0.00,,Scattered Clouds,60,2013-09-01 12:56:00
9:56 AM,87.1,75.9,69,29.99,10.0,NE,15.0,-,N/A,,Scattered Clouds,50,2013-09-01 13:56:00
10:56 AM,88.0,77.0,70,29.99,10.0,NE,15.0,19.6,N/A,,Scattered Clouds,50,2013-09-01 14:56:00
11:15 AM,87.8,75.2,66,29.99,10.0,ENE,13.8,-,N/A,,Mostly Cloudy,60,2013-09-01 15:15:00
11:17 AM,87.8,75.2,66,29.99,10.0,East,13.8,-,N/A,,Scattered Clouds,80,2013-09-01 15:17:00
11:56 AM,88.0,75.9,67,29.99,10.0,ENE,15.0,-,N/A,,Scattered Clouds,60,2013-09-01 15:56:00
12:56 PM,89.1,75.0,63,29.97,10.0,East,13.8,-,N/A,,Scattered Clouds,80,2013-09-01 16:56:00
1:56 PM,88.0,75.0,65,29.96,10.0,ENE,16.1,20.7,N/A,,Scattered Clouds,60,2013-09-01 17:56:00
2:56 PM,87.1,75.0,67,29.94,9.0,ENE,13.8,-,N/A,,Scattered Clouds,60,2013-09-01 18:56:00
3:56 PM,87.1,75.0,67,29.93,10.0,ENE,16.1,-,N/A,,Scattered Clouds,60,2013-09-01 19:56:00
4:56 PM,86.0,75.0,70,29.92,10.0,ENE,13.8,-,N/A,,Scattered Clouds,70,2013-09-01 20:56:00
5:56 PM,84.9,75.0,72,29.93,10.0,ENE,11.5,-,N/A,,Scattered Clouds,70,2013-09-01 21:56:00
6:56 PM,84.0,75.0,74,29.94,10.0,ENE,9.2,-,N/A,,Scattered Clouds,60,2013-09-01 22:56:00
7:56 PM,84.0,75.0,74,29.96,10.0,ENE,10.4,-,N/A,,Scattered Clouds,60,2013-09-01 23:56:00
8:56 PM,84.0,75.0,74,29.98,10.0,ENE,11.5,-,N/A,,Scattered Clouds,60,2013-09-02 00:56:00
9:56 PM,84.0,73.9,72,29.99,10.0,ENE,10.4,-,N/A,,Partly Cloudy,60,2013-09-02 01:56:00
10:56 PM,82.9,75.0,77,29.99,10.0,ENE,9.2,-,N/A,,Scattered Clouds,60,2013-09-02 02:56:00
11:56 PM,82.0,73.9,76,29.97,10.0,East,8.1,-,N/A,,Scattered Clouds,80,2013-09-02 03:56:00